Location: Brest
(52.1000°N, 23.7000°E)
Time: 10:09:08
(UTC+03:00)

Envisat - Visible Passes

Search period start: 29 June 2017 00:00
Search period end: 09 July 2017 00:00
Orbit: 764 x 766 km, 98.2° (Epoch: 28 June)

Date Brightness Start Highest point End Pass type
(mag) Time Alt. Az. Time Alt. Az. Time Alt. Az.
30 Jun 5.5 22:46:48 10° SW 22:49:56 16° W 22:53:03 10° NW visible
03 Jul 5.4 22:35:03 10° SW 22:38:41 20° W 22:42:22 10° NW visible
05 Jul 5.7 23:02:45 10° WSW 23:04:42 12° W 23:06:39 10° WNW visible
08 Jul 5.6 22:50:35 10° WSW 22:53:26 15° W 22:56:18 10° NW visible
